This is the latest recevied weather packets stored in our database for station/object K7TUS-6. If no packets are shown the sender has not sent any weather packets the latest 10 day(s).
| Time | Temp. | Humidity | Pressure | Rain* | Wind** | Luminosity | Snow |
|---|---|---|---|---|---|---|---|
| 1777824605 | 15.56° C | 11% | 986.4 hPa | - | - | - | - |
| 1777824305 | 15.56° C | 12% | 986.1 hPa | - | - | - | - |
| 1777824010 | 15.56° C | 11% | 986.6 hPa | - | - | - | - |
| 1777823707 | 15.56° C | 15% | 986.6 hPa | - | - | - | - |
| 1777823406 | 15.56° C | 13% | 986.1 hPa | - | - | - | - |
| 1777823106 | 15.56° C | 15% | 986.4 hPa | - | - | - | - |
| 1777822805 | 14.44° C | 11% | 985.7 hPa | - | - | - | - |
| 1777822504 | 15° C | 13% | 985.8 hPa | - | - | - | - |
| 1777822203 | 15° C | 13% | 986.2 hPa | - | - | - | - |
| 1777821903 | 15° C | 14% | 985.9 hPa | - | - | - | - |
| 1777821602 | 14.44° C | 16% | 985.6 hPa | - | - | - | - |
| 1777821308 | 14.44° C | 15% | 986.1 hPa | - | - | - | - |
| 1777820707 | 13.89° C | 13% | 985.7 hPa | - | - | - | - |
| 1777820406 | 14.44° C | 15% | 986.7 hPa | - | - | - | - |
| 1777819806 | 14.44° C | 15% | 985.7 hPa | - | - | - | - |
| 1777819505 | 14.44° C | 16% | 985.5 hPa | - | - | - | - |
| 1777818904 | 14.44° C | 12% | 985.5 hPa | - | - | - | - |
| 1777818603 | 14.44° C | 14% | 984.7 hPa | - | - | - | - |
| 1777818303 | 14.44° C | 14% | 985.5 hPa | - | - | - | - |
| 1777818008 | 14.44° C | 16% | 986.3 hPa | - | - | - | - |
| 1777817707 | 14.44° C | 16% | 986.2 hPa | - | - | - | - |
| 1777817407 | 13.33° C | 15% | 985.9 hPa | - | - | - | - |
| 1777817106 | 13.33° C | 17% | 985.8 hPa | - | - | - | - |
| 1777816806 | 13.33° C | 17% | 986 hPa | - | - | - | - |
| 1777816505 | 13.33° C | 17% | 986.2 hPa | - | - | - | - |
* Rain since midnight (hover to see other rain measurements)
** Current wind speed in m/s (hover to see current wind gust speed)